This is the latest recevied weather packets stored in our database for station/object G4CVN. If no packets are shown the sender has not sent any weather packets the latest 10 day(s).
| Time | Temp. | Humidity | Pressure | Rain* | Wind** | Luminosity | Snow |
|---|---|---|---|---|---|---|---|
| 1777932915 | 12.78° C | 89% | 1018.2 hPa | 0 mm | - | 0 W/m² | - |
| 1777929336 | 12.78° C | 86% | 1018.2 hPa | 0 mm | - | 0 W/m² | - |
| 1777926315 | 13.33° C | 84% | 1018.2 hPa | 0 mm | - | 0 W/m² | - |
| 1777923316 | 14.44° C | 80% | 1017.8 hPa | 0 mm | - | 0 W/m² | - |
| 1777920915 | 15.56° C | 77% | 1017.6 hPa | 0 mm | - | 18 W/m² | - |
| 1777919716 | 16.11° C | 76% | 1017.5 hPa | 0 mm | - | 31 W/m² | - |
| 1777917915 | 17.22° C | 74% | 1017.3 hPa | 0 mm | - | 61 W/m² | - |
| 1777916116 | 17.22° C | 72% | 1017.3 hPa | 0 mm | - | 63 W/m² | - |
| 1777915516 | 17.22° C | 72% | 1017.3 hPa | 0 mm | - | 59 W/m² | - |
| 1777914316 | 17.78° C | 70% | 1017.2 hPa | 0 mm | - | 87 W/m² | - |
| 1777913716 | 17.78° C | 69% | 1017.2 hPa | 0 mm | - | 122 W/m² | - |
| 1777911336 | 18.89° C | 69% | 1017.3 hPa | 0 mm | - | 121 W/m² | - |
| 1777905916 | 21.11° C | 62% | 1017.6 hPa | 0 mm | - | 266 W/m² | - |
| 1777901116 | 20° C | 66% | 1017.7 hPa | 0 mm | - | 739 W/m² | - |
| 1777899936 | 20.56° C | 64% | 1017.8 hPa | 0 mm | - | 299 W/m² | - |
| 1777896336 | 20.56° C | 69% | 1017.8 hPa | 0 mm | - | 815 W/m² | - |
| 1777894516 | 20° C | 74% | 1017.9 hPa | 0 mm | - | 883 W/m² | - |
| 1777893916 | 20° C | 69% | 1018 hPa | 0 mm | - | 340 W/m² | - |
| 1777890316 | 16.67° C | 83% | 1017.9 hPa | 0 mm | - | 355 W/m² | - |
| 1777887916 | 15.56° C | 86% | 1018.1 hPa | 0 mm | - | 199 W/m² | - |
| 1777883116 | 13.33° C | 95% | 1017.9 hPa | 0 mm | - | 140 W/m² | - |
| 1777880716 | 12.78° C | 95% | 1017.6 hPa | 0 mm | - | 60 W/m² | - |
| 1777874736 | 11.67° C | 96% | 1016.8 hPa | 0 mm | - | 23 W/m² | - |
| 1777872316 | 11.67° C | 96% | 1016.4 hPa | 0 mm | - | 9 W/m² | - |
| 1777871716 | 11.67° C | 96% | 1016.4 hPa | 0 mm | - | 6 W/m² | - |
* Rain latest hour (hover to see other rain measurements)
** Current wind speed in m/s (hover to see current wind gust speed)